Time,TemperatureF,DewpointF,PressureIn,WindDirection,WindDirectionDegrees,WindSpeedMPH,WindSpeedGustMPH,Humidity,HourlyPrecipIn,Conditions,Clouds,dailyrainin,SolarRadiationWatts/m^2,SoftwareType,DateUTC
2013-06-01 00:01:00,74.5,71.4,30.09,ESE,108,0.0,3.0,90,0.00,,,0.00,0.0,meteohub,2013-06-01 04:01:00,
2013-06-01 00:06:00,74.3,71.2,30.09,SSE,148,0.0,3.0,90,0.00,,,0.00,0.0,meteohub,2013-06-01 04:06:00,
2013-06-01 00:11:00,74.3,71.2,30.09,ESE,122,0.0,2.0,90,0.00,,,0.00,0.0,meteohub,2013-06-01 04:11:00,
2013-06-01 00:16:00,74.3,71.2,30.09,SSE,165,0.0,4.0,90,0.00,,,0.00,0.0,meteohub,2013-06-01 04:16:00,
2013-06-01 00:21:00,74.1,71.1,30.09,SE,135,0.0,4.0,90,0.00,,,0.00,0.0,meteohub,2013-06-01 04:21:00,
2013-06-01 00:26:00,74.3,71.2,30.09,East,100,1.0,3.0,90,0.00,,,0.00,0.0,meteohub,2013-06-01 04:26:00,
2013-06-01 00:31:00,74.3,71.2,30.08,East,100,0.0,3.0,90,0.00,,,0.00,0.0,meteohub,2013-06-01 04:31:00,
2013-06-01 00:36:00,74.3,71.2,30.09,SSE,156,0.0,3.0,90,0.00,,,0.00,0.0,meteohub,2013-06-01 04:36:00,
2013-06-01 00:41:00,74.3,71.2,30.09,ESE,117,0.0,5.0,90,0.00,,,0.00,0.0,meteohub,2013-06-01 04:41:00,
2013-06-01 00:46:00,74.1,71.1,30.09,ESE,117,0.0,5.0,90,0.00,,,0.00,0.0,meteohub,2013-06-01 04:46:00,
2013-06-01 00:51:00,74.1,71.1,30.08,ESE,117,0.0,3.0,90,0.00,,,0.00,0.0,meteohub,2013-06-01 04:51:00,
2013-06-01 00:56:00,74.1,71.1,30.08,ESE,117,0.0,2.0,90,0.00,,,0.00,0.0,meteohub,2013-06-01 04:56:00,
2013-06-01 01:01:00,74.1,71.1,30.08,ESE,117,0.0,2.0,90,0.00,,,0.00,0.0,meteohub,2013-06-01 05:01:00,
2013-06-01 01:06:00,74.3,71.2,30.08,SE,132,1.0,6.0,90,0.00,,,0.00,0.0,meteohub,2013-06-01 05:06:00,
2013-06-01 01:11:00,74.5,71.4,30.08,SSE,149,2.0,6.0,90,0.00,,,0.00,0.0,meteohub,2013-06-01 05:11:00,
2013-06-01 01:16:00,74.5,71.4,30.08,SSE,149,0.0,6.0,90,0.00,,,0.00,0.0,meteohub,2013-06-01 05:16:00,
2013-06-01 01:22:00,74.5,71.4,30.07,SSE,149,0.0,5.0,90,0.00,,,0.00,0.0,meteohub,2013-06-01 05:22:00,
2013-06-01 01:26:00,74.3,71.2,30.07,SSE,149,0.0,3.0,90,0.00,,,0.00,0.0,meteohub,2013-06-01 05:26:00,
2013-06-01 01:31:00,74.3,71.2,30.07,East,101,0.0,3.0,90,0.00,,,0.00,0.0,meteohub,2013-06-01 05:31:00,
2013-06-01 01:36:00,74.5,71.4,30.07,East,98,0.0,4.0,90,0.00,,,0.00,0.0,meteohub,2013-06-01 05:36:00,
2013-06-01 01:41:00,74.5,71.4,30.07,East,92,0.0,4.0,90,0.00,,,0.00,0.0,meteohub,2013-06-01 05:41:00,
2013-06-01 01:46:00,74.5,71.4,30.06,East,92,0.0,5.0,90,0.00,,,0.00,0.0,meteohub,2013-06-01 05:46:00,
2013-06-01 01:51:00,74.5,71.4,30.06,East,92,0.0,5.0,90,0.00,,,0.00,0.0,meteohub,2013-06-01 05:51:00,
2013-06-01 01:56:00,74.5,71.4,30.07,ESE,102,1.0,4.0,90,0.00,,,0.00,0.0,meteohub,2013-06-01 05:56:00,
2013-06-01 02:01:00,74.5,71.4,30.06,ESE,113,0.0,5.0,90,0.00,,,0.00,0.0,meteohub,2013-06-01 06:01:00,
2013-06-01 02:06:00,74.5,71.4,30.06,East,93,1.0,5.0,90,0.00,,,0.00,0.0,meteohub,2013-06-01 06:06:00,
2013-06-01 02:11:00,74.5,71.4,30.06,ESE,106,2.0,5.0,90,0.00,,,0.00,0.0,meteohub,2013-06-01 06:11:00,
2013-06-01 02:16:00,74.5,71.4,30.06,ESE,106,0.0,4.0,90,0.00,,,0.00,0.0,meteohub,2013-06-01 06:16:00,
2013-06-01 02:21:00,74.5,71.4,30.06,ESE,106,0.0,4.0,90,0.00,,,0.00,0.0,meteohub,2013-06-01 06:21:00,
2013-06-01 02:32:00,74.5,72.0,30.06,ESE,106,0.0,-999.0,90,-99.99,,,0.00,0,weatherlink.com 1.10,2013-06-01 06:32:00,
2013-06-01 02:37:00,74.5,71.4,30.05,ESE,106,0.0,3.0,90,0.00,,,0.00,0.0,meteohub,2013-06-01 06:37:00,
2013-06-01 02:42:00,74.5,71.4,30.05,ESE,106,0.0,3.0,90,0.00,,,0.00,0.0,meteohub,2013-06-01 06:42:00,
2013-06-01 02:47:00,74.5,71.6,30.05,ESE,106,0.0,3.0,91,0.00,,,0.00,0.0,meteohub,2013-06-01 06:47:00,
2013-06-01 02:52:00,74.5,71.6,30.05,ESE,106,0.0,3.0,91,0.00,,,0.00,0.0,meteohub,2013-06-01 06:52:00,
2013-06-01 02:57:00,74.5,71.6,30.04,ESE,106,0.0,3.0,91,0.00,,,0.00,0.0,meteohub,2013-06-01 06:57:00,
2013-06-01 03:02:00,74.5,71.6,30.04,East,101,0.0,3.0,91,0.00,,,0.00,0.0,meteohub,2013-06-01 07:02:00,
2013-06-01 03:07:00,74.5,71.6,30.04,East,101,0.0,3.0,91,0.00,,,0.00,0.0,meteohub,2013-06-01 07:07:00,
2013-06-01 03:12:00,74.7,71.8,30.04,ESE,104,0.0,5.0,91,0.00,,,0.00,0.0,meteohub,2013-06-01 07:12:00,
2013-06-01 03:17:00,74.7,71.8,30.04,ESE,103,0.0,5.0,91,0.00,,,0.00,0.0,meteohub,2013-06-01 07:17:00,
2013-06-01 03:22:00,74.8,72.0,30.04,SSE,157,3.0,5.0,91,0.00,,,0.00,0.0,meteohub,2013-06-01 07:22:00,
2013-06-01 03:27:00,74.8,71.8,30.04,SE,127,1.0,3.0,90,0.00,,,0.00,0.0,meteohub,2013-06-01 07:27:00,
2013-06-01 03:32:00,74.8,71.8,30.04,East,98,0.0,5.0,90,0.00,,,0.00,0.0,meteohub,2013-06-01 07:32:00,
2013-06-01 03:37:00,75.0,72.0,30.04,South,173,0.0,5.0,90,0.00,,,0.00,0.0,meteohub,2013-06-01 07:37:00,
2013-06-01 03:42:00,75.0,72.0,30.04,South,173,0.0,5.0,90,0.00,,,0.00,0.0,meteohub,2013-06-01 07:42:00,
2013-06-01 03:47:00,75.0,72.0,30.04,East,92,0.0,4.0,90,0.00,,,0.00,0.0,meteohub,2013-06-01 07:47:00,
2013-06-01 03:52:00,75.0,72.0,30.04,East,92,0.0,3.0,90,0.00,,,0.00,0.0,meteohub,2013-06-01 07:52:00,
2013-06-01 03:57:00,75.0,72.0,30.04,ESE,102,0.0,3.0,90,0.00,,,0.00,0.0,meteohub,2013-06-01 07:57:00,
2013-06-01 04:02:00,75.0,72.0,30.04,ESE,102,0.0,3.0,90,0.00,,,0.00,0.0,meteohub,2013-06-01 08:02:00,
2013-06-01 04:07:00,75.0,72.0,30.04,ENE,69,0.0,3.0,90,0.00,,,0.00,0.0,meteohub,2013-06-01 08:07:00,
2013-06-01 04:12:00,74.8,71.8,30.04,ENE,69,0.0,3.0,90,0.00,,,0.00,0.0,meteohub,2013-06-01 08:12:00,
2013-06-01 04:17:00,74.8,71.8,30.04,ENE,69,0.0,3.0,90,0.00,,,0.00,0.0,meteohub,2013-06-01 08:17:00,
2013-06-01 04:22:00,74.8,71.8,30.04,ENE,69,0.0,3.0,90,0.00,,,0.00,0.0,meteohub,2013-06-01 08:22:00,
2013-06-01 04:27:00,74.7,71.6,30.04,ENE,69,0.0,3.0,90,0.00,,,0.00,0.0,meteohub,2013-06-01 08:27:00,
2013-06-01 04:32:00,74.7,71.8,30.04,ENE,69,0.0,3.0,91,0.00,,,0.00,0.0,meteohub,2013-06-01 08:32:00,
2013-06-01 04:37:00,74.5,71.6,30.04,ENE,69,0.0,1.0,91,0.00,,,0.00,0.0,meteohub,2013-06-01 08:37:00,
2013-06-01 04:42:00,74.5,71.6,30.04,ENE,69,0.0,1.0,91,0.00,,,0.00,0.0,meteohub,2013-06-01 08:42:00,
2013-06-01 04:47:00,74.5,71.6,30.05,ENE,70,0.0,3.0,91,0.00,,,0.00,0.0,meteohub,2013-06-01 08:47:00,
2013-06-01 04:52:00,74.5,71.6,30.05,ENE,69,0.0,3.0,91,0.00,,,0.00,0.0,meteohub,2013-06-01 08:52:00,
2013-06-01 04:57:00,74.3,71.4,30.05,ENE,70,0.0,3.0,91,0.00,,,0.00,0.0,meteohub,2013-06-01 08:57:00,
2013-06-01 05:02:00,74.3,71.4,30.05,ENE,70,0.0,1.0,91,0.00,,,0.00,0.0,meteohub,2013-06-01 09:02:00,
2013-06-01 05:07:00,74.1,71.6,30.05,ENE,70,0.0,1.0,92,0.00,,,0.00,0.0,meteohub,2013-06-01 09:07:00,
2013-06-01 05:12:00,74.1,71.6,30.05,ENE,69,0.0,0.0,92,0.00,,,0.00,0.0,meteohub,2013-06-01 09:12:00,
2013-06-01 05:17:00,73.8,71.2,30.05,ENE,69,0.0,0.0,92,0.00,,,0.00,0.0,meteohub,2013-06-01 09:17:00,
2013-06-01 05:22:00,73.6,71.4,30.06,ENE,70,0.0,0.0,93,0.00,,,0.00,0.0,meteohub,2013-06-01 09:22:00,
2013-06-01 05:27:00,73.2,71.1,30.05,ENE,70,0.0,0.0,93,0.00,,,0.00,0.0,meteohub,2013-06-01 09:27:00,
2013-06-01 05:32:00,73.0,70.9,30.06,ENE,70,0.0,0.0,93,0.00,,,0.00,0.0,meteohub,2013-06-01 09:32:00,
2013-06-01 05:37:00,72.9,71.1,30.06,ENE,69,0.0,0.0,94,0.00,,,0.00,0.0,meteohub,2013-06-01 09:37:00,
2013-06-01 05:42:00,72.7,70.9,30.06,ENE,70,0.0,0.0,94,0.00,,,0.00,0.0,meteohub,2013-06-01 09:42:00,
2013-06-01 05:47:00,72.3,70.5,30.06,ENE,69,0.0,0.0,94,0.00,,,0.00,0.0,meteohub,2013-06-01 09:47:00,
2013-06-01 05:52:00,72.1,70.3,30.06,ENE,69,0.0,0.0,94,0.00,,,0.00,0.0,meteohub,2013-06-01 09:52:00,
2013-06-01 05:57:00,72.1,70.7,30.06,ENE,70,0.0,0.0,95,0.00,,,0.00,0.0,meteohub,2013-06-01 09:57:00,
2013-06-01 06:02:00,72.0,70.5,30.06,ENE,69,0.0,0.0,95,0.00,,,0.00,0.0,meteohub,2013-06-01 10:02:00,
2013-06-01 06:07:00,72.0,70.5,30.06,ENE,70,0.0,0.0,95,0.00,,,0.00,0.0,meteohub,2013-06-01 10:07:00,
2013-06-01 06:12:00,71.8,70.3,30.07,ENE,70,0.0,0.0,95,0.00,,,0.00,0.0,meteohub,2013-06-01 10:12:00,
2013-06-01 06:17:00,71.8,70.3,30.07,ENE,70,0.0,0.0,95,0.00,,,0.00,0.0,meteohub,2013-06-01 10:17:00,
2013-06-01 06:22:00,71.4,70.2,30.07,ENE,70,0.0,0.0,96,0.00,,,0.00,0.0,meteohub,2013-06-01 10:22:00,
2013-06-01 06:27:00,71.4,70.2,30.07,ENE,69,0.0,0.0,96,0.00,,,0.00,5.0,meteohub,2013-06-01 10:27:00,
2013-06-01 06:32:00,71.3,70.0,30.07,ENE,69,0.0,-999.0,96,-99.99,,,0.00,9,weatherlink.com 1.10,2013-06-01 10:32:00,
2013-06-01 06:37:00,71.2,70.0,30.07,ENE,70,0.0,0.0,96,0.00,,,0.00,12.0,meteohub,2013-06-01 10:37:00,
2013-06-01 06:42:00,71.2,70.0,30.07,ENE,70,0.0,0.0,96,0.00,,,0.00,16.0,meteohub,2013-06-01 10:42:00,
2013-06-01 06:47:00,71.2,70.0,30.07,ENE,70,0.0,0.0,96,0.00,,,0.00,19.0,meteohub,2013-06-01 10:47:00,
2013-06-01 06:52:00,71.2,70.0,30.07,ENE,70,0.0,0.0,96,0.00,,,0.00,23.0,meteohub,2013-06-01 10:52:00,
2013-06-01 06:57:00,71.2,70.0,30.07,ENE,69,0.0,0.0,96,0.00,,,0.00,33.0,meteohub,2013-06-01 10:57:00,
2013-06-01 07:02:00,71.2,70.0,30.07,ENE,70,0.0,0.0,96,0.00,,,0.00,49.0,meteohub,2013-06-01 11:02:00,
2013-06-01 07:08:00,71.4,70.2,30.07,ENE,70,0.0,0.0,96,0.00,,,0.00,63.0,meteohub,2013-06-01 11:08:00,
2013-06-01 07:13:00,71.8,70.9,30.07,ENE,69,0.0,0.0,97,0.00,,,0.00,76.0,meteohub,2013-06-01 11:13:00,
2013-06-01 07:18:00,72.1,71.2,30.07,ENE,70,0.0,0.0,97,0.00,,,0.00,77.0,meteohub,2013-06-01 11:18:00,
2013-06-01 07:23:00,72.3,71.4,30.08,ENE,69,0.0,0.0,97,0.00,,,0.00,79.0,meteohub,2013-06-01 11:23:00,
2013-06-01 07:28:00,72.7,71.8,30.08,ENE,69,0.0,0.0,97,0.00,,,0.00,70.0,meteohub,2013-06-01 11:28:00,
2013-06-01 07:33:00,72.9,72.0,30.08,ENE,69,0.0,0.0,97,0.00,,,0.00,113.0,meteohub,2013-06-01 11:33:00,
2013-06-01 07:38:00,73.0,72.1,30.08,ENE,69,0.0,0.0,97,0.00,,,0.00,47.0,meteohub,2013-06-01 11:38:00,
2013-06-01 07:43:00,73.4,72.1,30.08,ENE,70,0.0,0.0,96,0.00,,,0.00,100.0,meteohub,2013-06-01 11:43:00,
2013-06-01 07:48:00,73.8,72.5,30.08,ENE,70,0.0,2.0,96,0.00,,,0.00,218.0,meteohub,2013-06-01 11:48:00,
2013-06-01 07:53:00,74.5,73.2,30.07,ENE,70,0.0,2.0,96,0.00,,,0.00,241.0,meteohub,2013-06-01 11:53:00,
2013-06-01 07:58:00,75.4,73.6,30.08,ENE,70,0.0,2.0,94,0.00,,,0.00,200.0,meteohub,2013-06-01 11:58:00,
2013-06-01 08:03:00,76.3,73.4,30.08,ENE,68,0.0,2.0,91,0.00,,,0.00,311.0,meteohub,2013-06-01 12:03:00,
2013-06-01 08:08:00,77.4,73.6,30.08,ENE,61,0.0,3.0,88,0.00,,,0.00,304.0,meteohub,2013-06-01 12:08:00,
2013-06-01 08:13:00,78.1,73.2,30.08,SSE,152,2.0,5.0,85,0.00,,,0.00,338.0,meteohub,2013-06-01 12:13:00,
2013-06-01 08:18:00,78.3,73.4,30.08,ESE,102,2.0,6.0,85,0.00,,,0.00,346.0,meteohub,2013-06-01 12:18:00,
2013-06-01 08:23:00,78.4,73.2,30.08,East,82,0.0,7.0,84,0.00,,,0.00,362.0,meteohub,2013-06-01 12:23:00,
2013-06-01 08:28:00,78.3,72.7,30.08,ESE,122,1.0,8.0,83,0.00,,,0.00,142.0,meteohub,2013-06-01 12:28:00,
2013-06-01 08:33:00,77.7,72.5,30.08,East,80,0.0,8.0,84,0.00,,,0.00,207.0,meteohub,2013-06-01 12:33:00,
2013-06-01 08:38:00,78.1,72.5,30.08,SE,124,0.0,6.0,83,0.00,,,0.00,501.0,meteohub,2013-06-01 12:38:00,
2013-06-01 08:43:00,79.0,73.4,30.08,ESE,123,1.0,7.0,83,0.00,,,0.00,504.0,meteohub,2013-06-01 12:43:00,
2013-06-01 08:48:00,79.7,73.0,30.09,SE,138,3.0,7.0,80,0.00,,,0.00,533.0,meteohub,2013-06-01 12:48:00,
2013-06-01 08:53:00,80.1,73.4,30.09,ESE,113,9.0,9.0,80,0.00,,,0.00,596.0,meteohub,2013-06-01 12:53:00,
2013-06-01 08:58:00,80.1,73.4,30.08,South,184,0.0,9.0,80,0.00,,,0.00,468.0,meteohub,2013-06-01 12:58:00,
2013-06-01 09:03:00,80.1,73.4,30.08,ENE,74,2.0,9.0,80,0.00,,,0.00,185.0,meteohub,2013-06-01 13:03:00,
2013-06-01 09:08:00,79.3,72.3,30.08,South,175,2.0,9.0,79,0.00,,,0.00,156.0,meteohub,2013-06-01 13:08:00,
2013-06-01 09:13:00,79.2,72.1,30.08,ESE,117,5.0,8.0,79,0.00,,,0.00,512.0,meteohub,2013-06-01 13:13:00,
2013-06-01 09:18:00,79.3,72.3,30.08,ESE,120,1.0,8.0,79,0.00,,,0.00,615.0,meteohub,2013-06-01 13:18:00,
2013-06-01 09:23:00,80.2,72.3,30.08,South,173,4.0,13.0,77,0.00,,,0.00,682.0,meteohub,2013-06-01 13:23:00,
2013-06-01 09:28:00,80.6,72.0,30.08,SSE,156,6.0,13.0,75,0.00,,,0.00,666.0,meteohub,2013-06-01 13:28:00,
2013-06-01 09:33:00,80.4,71.8,30.08,SSW,211,1.0,13.0,75,0.00,,,0.00,364.0,meteohub,2013-06-01 13:33:00,
2013-06-01 09:38:00,80.6,72.7,30.08,East,84,2.0,10.0,77,0.00,,,0.00,264.0,meteohub,2013-06-01 13:38:00,
2013-06-01 09:43:00,80.4,72.1,30.08,East,94,5.0,10.0,76,0.00,,,0.00,786.0,meteohub,2013-06-01 13:43:00,
2013-06-01 09:48:00,81.0,72.3,30.08,SE,135,2.0,10.0,75,0.00,,,0.00,313.0,meteohub,2013-06-01 13:48:00,
2013-06-01 09:54:00,81.3,72.3,30.09,East,86,0.0,10.0,74,0.00,,,0.00,199.0,meteohub,2013-06-01 13:54:00,
2013-06-01 09:59:00,81.1,72.1,30.09,South,181,2.0,10.0,74,0.00,,,0.00,849.0,meteohub,2013-06-01 13:59:00,
2013-06-01 10:04:00,81.5,72.0,30.09,ENE,65,3.0,9.0,73,0.00,,,0.00,297.0,meteohub,2013-06-01 14:04:00,
2013-06-01 10:09:00,81.0,72.0,30.09,SW,215,4.0,9.0,74,0.00,,,0.00,239.0,meteohub,2013-06-01 14:09:00,
2013-06-01 10:14:00,80.8,71.8,30.09,ESE,121,5.0,10.0,74,0.00,,,0.00,589.0,meteohub,2013-06-01 14:14:00,
2013-06-01 10:19:00,81.5,72.0,30.08,South,190,1.0,10.0,73,0.00,,,0.00,262.0,meteohub,2013-06-01 14:19:00,
2013-06-01 10:24:00,81.9,72.7,30.09,SW,225,0.0,11.0,74,0.00,,,0.00,958.0,meteohub,2013-06-01 14:24:00,
2013-06-01 10:29:00,81.3,71.8,30.08,SE,136,4.0,11.0,73,0.00,,,0.00,227.0,meteohub,2013-06-01 14:29:00,
2013-06-01 10:34:00,81.3,71.8,30.08,SE,129,4.0,11.0,73,0.00,,,0.00,911.0,meteohub,2013-06-01 14:34:00,
2013-06-01 10:39:00,81.7,72.5,30.08,NE,51,6.0,11.0,74,0.00,,,0.00,898.0,meteohub,2013-06-01 14:39:00,
2013-06-01 10:44:00,81.7,72.5,30.08,SE,144,1.0,11.0,74,0.00,,,0.00,1011.0,meteohub,2013-06-01 14:44:00,
2013-06-01 10:49:00,81.9,72.3,30.08,South,180,2.0,11.0,73,0.00,,,0.00,995.0,meteohub,2013-06-01 14:49:00,
2013-06-01 10:54:00,82.0,72.9,30.09,SSE,159,6.0,11.0,74,0.00,,,0.00,990.0,meteohub,2013-06-01 14:54:00,
2013-06-01 10:58:00,82.0,72.9,30.08,SE,142,7.0,12.0,74,0.00,,,0.00,1005.0,meteohub,2013-06-01 14:58:00,
2013-06-01 11:03:00,82.0,72.5,30.08,ESE,115,2.0,12.0,73,0.00,,,0.00,237.0,meteohub,2013-06-01 15:03:00,
2013-06-01 11:09:00,81.7,72.5,30.08,SSE,167,5.0,12.0,74,0.00,,,0.00,294.0,meteohub,2013-06-01 15:09:00,
2013-06-01 11:14:00,81.7,73.0,30.08,NE,47,2.0,9.0,75,0.00,,,0.00,362.0,meteohub,2013-06-01 15:14:00,
2013-06-01 11:19:00,82.0,72.9,30.08,NE,44,0.0,9.0,74,0.00,,,0.00,831.0,meteohub,2013-06-01 15:19:00,
2013-06-01 11:24:00,81.7,72.1,30.08,ESE,106,2.0,13.0,73,0.00,,,0.00,216.0,meteohub,2013-06-01 15:24:00,
2013-06-01 11:29:00,81.9,72.3,30.09,SSE,161,1.0,13.0,73,0.00,,,0.00,1063.0,meteohub,2013-06-01 15:29:00,
2013-06-01 11:34:00,82.0,72.9,30.08,SE,140,1.0,13.0,74,0.00,,,0.00,262.0,meteohub,2013-06-01 15:34:00,
2013-06-01 11:39:00,82.2,72.7,30.08,NNE,32,8.0,10.0,73,0.00,,,0.00,1132.0,meteohub,2013-06-01 15:39:00,
2013-06-01 11:44:00,82.6,72.7,30.08,SSE,158,6.0,9.0,72,0.00,,,0.00,369.0,meteohub,2013-06-01 15:44:00,
2013-06-01 11:49:00,82.4,72.9,30.08,East,86,6.0,10.0,73,0.00,,,0.00,281.0,meteohub,2013-06-01 15:49:00,
2013-06-01 11:54:00,81.7,72.1,30.08,SE,126,2.0,10.0,73,0.00,,,0.00,297.0,meteohub,2013-06-01 15:54:00,
2013-06-01 11:59:00,81.7,72.1,30.08,East,91,3.0,10.0,73,0.00,,,0.00,350.0,meteohub,2013-06-01 15:59:00,
2013-06-01 12:04:00,82.0,72.9,30.08,East,84,6.0,10.0,74,0.00,,,0.00,1055.0,meteohub,2013-06-01 16:04:00,
2013-06-01 12:09:00,82.8,72.9,30.08,ESE,113,7.0,11.0,72,0.00,,,0.00,448.0,meteohub,2013-06-01 16:09:00,
2013-06-01 12:14:00,82.6,72.1,30.08,ESE,114,4.0,11.0,71,0.00,,,0.00,800.0,meteohub,2013-06-01 16:14:00,
2013-06-01 12:19:00,83.1,73.6,30.08,North,5,3.0,11.0,73,0.00,,,0.00,1209.0,meteohub,2013-06-01 16:19:00,
2013-06-01 12:24:00,82.8,73.2,30.08,NE,48,7.0,12.0,73,0.00,,,0.00,309.0,meteohub,2013-06-01 16:24:00,
2013-06-01 12:29:00,82.0,72.5,30.08,ENE,67,1.0,12.0,73,0.00,,,0.00,1232.0,meteohub,2013-06-01 16:29:00,
2013-06-01 12:34:00,81.5,71.6,30.08,SSE,160,2.0,12.0,72,0.00,,,0.00,1013.0,meteohub,2013-06-01 16:34:00,
2013-06-01 12:39:00,82.0,72.5,30.08,SSE,153,4.0,14.0,73,0.00,,,0.00,1169.0,meteohub,2013-06-01 16:39:00,
2013-06-01 12:44:00,82.2,72.7,30.08,East,92,5.0,14.0,73,0.00,,,0.00,1148.0,meteohub,2013-06-01 16:44:00,
2013-06-01 12:49:00,82.2,73.6,30.08,East,96,6.0,14.0,75,0.00,,,0.00,1120.0,meteohub,2013-06-01 16:49:00,
2013-06-01 12:54:00,82.0,72.5,30.08,East,82,1.0,11.0,73,0.00,,,0.00,461.0,meteohub,2013-06-01 16:54:00,
2013-06-01 12:59:00,82.0,73.4,30.08,East,98,3.0,11.0,75,0.00,,,0.00,1216.0,meteohub,2013-06-01 16:59:00,
2013-06-01 13:04:00,82.2,73.6,30.08,ESE,119,1.0,11.0,75,0.00,,,0.00,297.0,meteohub,2013-06-01 17:04:00,
2013-06-01 13:09:00,82.6,73.4,30.08,SE,130,4.0,11.0,74,0.00,,,0.00,1125.0,meteohub,2013-06-01 17:09:00,
2013-06-01 13:14:00,82.9,73.4,30.08,SE,143,4.0,11.0,73,0.00,,,0.00,1165.0,meteohub,2013-06-01 17:14:00,
2013-06-01 13:19:00,82.8,72.3,30.08,ESE,111,3.0,9.0,71,0.00,,,0.00,1162.0,meteohub,2013-06-01 17:19:00,
2013-06-01 13:24:00,82.4,72.0,30.08,SSE,153,3.0,10.0,71,0.00,,,0.00,276.0,meteohub,2013-06-01 17:24:00,
2013-06-01 13:29:00,82.0,72.1,30.07,ESE,117,7.0,11.0,72,0.00,,,0.00,279.0,meteohub,2013-06-01 17:29:00,
2013-06-01 13:34:00,82.2,72.3,30.07,NE,43,2.0,13.0,72,0.00,,,0.00,290.0,meteohub,2013-06-01 17:34:00,
2013-06-01 13:39:00,81.9,73.2,30.07,NE,45,2.0,14.0,75,0.00,,,0.00,290.0,meteohub,2013-06-01 17:39:00,
2013-06-01 13:44:00,82.0,72.5,30.07,NE,38,3.0,14.0,73,0.00,,,0.00,1146.0,meteohub,2013-06-01 17:44:00,
2013-06-01 13:49:00,82.0,71.8,30.07,South,171,3.0,14.0,71,0.00,,,0.00,1165.0,meteohub,2013-06-01 17:49:00,
2013-06-01 13:54:00,82.6,73.0,30.07,SW,221,2.0,9.0,73,0.00,,,0.00,1132.0,meteohub,2013-06-01 17:54:00,
2013-06-01 13:59:00,83.1,73.2,30.06,ENE,64,3.0,10.0,72,0.00,,,0.00,1116.0,meteohub,2013-06-01 17:59:00,
2013-06-01 14:04:00,82.8,72.9,30.06,SSE,157,3.0,10.0,72,0.00,,,0.00,1148.0,meteohub,2013-06-01 18:04:00,
2013-06-01 14:09:00,82.2,72.7,30.06,ENE,71,7.0,10.0,73,0.00,,,0.00,271.0,meteohub,2013-06-01 18:09:00,
2013-06-01 14:14:00,82.6,72.7,30.06,East,88,2.0,10.0,72,0.00,,,0.00,1058.0,meteohub,2013-06-01 18:14:00,
2013-06-01 14:19:00,83.7,72.9,30.06,SE,142,7.0,10.0,70,0.00,,,0.00,1058.0,meteohub,2013-06-01 18:19:00,
2013-06-01 14:24:00,83.7,73.2,30.06,ESE,114,2.0,10.0,71,0.00,,,0.00,1099.0,meteohub,2013-06-01 18:24:00,
2013-06-01 14:29:00,82.9,72.1,30.06,ESE,111,5.0,12.0,70,0.00,,,0.00,1113.0,meteohub,2013-06-01 18:29:00,
2013-06-01 14:34:00,82.8,72.9,30.06,SE,132,4.0,12.0,72,0.00,,,0.00,232.0,meteohub,2013-06-01 18:34:00,
2013-06-01 14:39:00,82.8,72.9,30.05,SSE,161,2.0,12.0,72,0.00,,,0.00,1058.0,meteohub,2013-06-01 18:39:00,
2013-06-01 14:44:00,83.1,73.2,30.05,East,81,1.0,12.0,72,0.00,,,0.00,1063.0,meteohub,2013-06-01 18:44:00,
2013-06-01 14:49:00,83.1,72.7,30.05,SSE,160,1.0,12.0,71,0.00,,,0.00,294.0,meteohub,2013-06-01 18:49:00,
2013-06-01 14:54:00,82.2,72.3,30.05,East,101,8.0,12.0,72,0.00,,,0.00,1086.0,meteohub,2013-06-01 18:54:00,
2013-06-01 14:59:00,82.4,72.5,30.05,NNE,33,2.0,10.0,72,0.00,,,0.00,288.0,meteohub,2013-06-01 18:59:00,
2013-06-01 15:03:00,82.6,72.7,30.05,East,91,3.0,9.0,72,0.00,,,0.00,1085.0,meteohub,2013-06-01 19:03:00,
2013-06-01 15:08:00,82.2,72.3,30.05,ESE,115,2.0,12.0,72,0.00,,,0.00,1056.0,meteohub,2013-06-01 19:08:00,
2013-06-01 15:13:00,82.0,72.5,30.05,SE,138,9.0,12.0,73,0.00,,,0.00,269.0,meteohub,2013-06-01 19:13:00,
2013-06-01 15:18:00,82.0,72.1,30.05,ESE,107,2.0,12.0,72,0.00,,,0.00,956.0,meteohub,2013-06-01 19:18:00,
2013-06-01 15:24:00,82.2,72.7,30.05,ESE,119,5.0,11.0,73,0.00,,,0.00,1004.0,meteohub,2013-06-01 19:24:00,
2013-06-01 15:28:00,82.4,72.9,30.05,ENE,71,4.0,10.0,73,0.00,,,0.00,990.0,meteohub,2013-06-01 19:28:00,
2013-06-01 15:33:00,82.9,73.0,30.04,SSW,196,4.0,10.0,72,0.00,,,0.00,1007.0,meteohub,2013-06-01 19:33:00,
2013-06-01 15:38:00,82.8,72.9,30.04,ENE,77,7.0,10.0,72,0.00,,,0.00,494.0,meteohub,2013-06-01 19:38:00,
2013-06-01 15:43:00,82.2,72.3,30.04,NNE,26,0.0,10.0,72,0.00,,,0.00,1076.0,meteohub,2013-06-01 19:43:00,
2013-06-01 15:48:00,81.9,72.0,30.04,East,82,2.0,10.0,72,0.00,,,0.00,1076.0,meteohub,2013-06-01 19:48:00,
2013-06-01 15:53:00,81.9,72.3,30.04,ENE,71,3.0,9.0,73,0.00,,,0.00,348.0,meteohub,2013-06-01 19:53:00,
2013-06-01 15:58:00,81.7,72.1,30.04,ESE,114,2.0,8.0,73,0.00,,,0.00,366.0,meteohub,2013-06-01 19:58:00,
2013-06-01 16:03:00,81.9,72.3,30.04,East,99,5.0,11.0,73,0.00,,,0.00,220.0,meteohub,2013-06-01 20:03:00,
2013-06-01 16:08:00,82.0,72.5,30.04,NE,52,6.0,11.0,73,0.00,,,0.00,967.0,meteohub,2013-06-01 20:08:00,
2013-06-01 16:14:00,81.7,71.8,30.04,ESE,123,1.0,13.0,72,0.00,,,0.00,185.0,meteohub,2013-06-01 20:14:00,
2013-06-01 16:19:00,81.9,72.3,30.04,SE,138,1.0,13.0,73,0.00,,,0.00,877.0,meteohub,2013-06-01 20:19:00,
2013-06-01 16:24:00,81.9,72.3,30.04,East,96,1.0,13.0,73,0.00,,,0.00,206.0,meteohub,2013-06-01 20:24:00,
2013-06-01 16:29:00,81.1,71.2,30.04,NE,56,3.0,10.0,72,0.00,,,0.00,125.0,meteohub,2013-06-01 20:29:00,
2013-06-01 16:34:00,80.8,71.2,30.04,ESE,105,2.0,10.0,73,0.00,,,0.00,809.0,meteohub,2013-06-01 20:34:00,
2013-06-01 16:39:00,80.8,71.2,30.04,ENE,58,0.0,9.0,73,0.00,,,0.00,155.0,meteohub,2013-06-01 20:39:00,
2013-06-01 16:44:00,80.6,71.6,30.04,ESE,103,1.0,9.0,74,0.00,,,0.00,253.0,meteohub,2013-06-01 20:44:00,
2013-06-01 16:49:00,81.0,71.4,30.04,SSE,150,7.0,8.0,73,0.00,,,0.00,113.0,meteohub,2013-06-01 20:49:00,
2013-06-01 16:54:00,80.8,70.9,30.04,ESE,121,1.0,9.0,72,0.00,,,0.00,111.0,meteohub,2013-06-01 20:54:00,
2013-06-01 16:59:00,81.0,71.4,30.03,East,95,3.0,11.0,73,0.00,,,0.00,251.0,meteohub,2013-06-01 20:59:00,
2013-06-01 17:04:00,81.5,71.6,30.03,ENE,68,0.0,11.0,72,0.00,,,0.00,153.0,meteohub,2013-06-01 21:04:00,
2013-06-01 17:09:00,81.7,71.4,30.03,ENE,63,3.0,8.0,71,0.00,,,0.00,320.0,meteohub,2013-06-01 21:09:00,
2013-06-01 17:14:00,81.7,71.4,30.03,ESE,112,3.0,8.0,71,0.00,,,0.00,113.0,meteohub,2013-06-01 21:14:00,
2013-06-01 17:19:00,81.7,71.8,30.03,ENE,70,2.0,9.0,72,0.00,,,0.00,130.0,meteohub,2013-06-01 21:19:00,
2013-06-01 17:24:00,81.3,71.1,30.03,ENE,60,2.0,9.0,71,0.00,,,0.00,90.0,meteohub,2013-06-01 21:24:00,
2013-06-01 17:29:00,81.3,70.5,30.03,SE,132,0.0,10.0,70,0.00,,,0.00,139.0,meteohub,2013-06-01 21:29:00,
2013-06-01 17:34:00,81.7,71.8,30.03,ENE,68,5.0,10.0,72,0.00,,,0.00,227.0,meteohub,2013-06-01 21:34:00,
2013-06-01 17:39:00,81.3,70.5,30.03,East,101,0.0,10.0,70,0.00,,,0.00,102.0,meteohub,2013-06-01 21:39:00,
2013-06-01 17:44:00,80.8,70.9,30.02,East,96,7.0,8.0,72,0.00,,,0.00,91.0,meteohub,2013-06-01 21:44:00,
2013-06-01 17:49:00,80.8,71.2,30.03,East,90,3.0,8.0,73,0.00,,,0.00,137.0,meteohub,2013-06-01 21:49:00,
2013-06-01 17:54:00,81.1,72.1,30.02,East,91,0.0,8.0,74,0.00,,,0.00,146.0,meteohub,2013-06-01 21:54:00,
2013-06-01 17:59:00,81.1,71.6,30.02,East,82,2.0,8.0,73,0.00,,,0.00,130.0,meteohub,2013-06-01 21:59:00,
2013-06-01 18:04:00,81.0,71.4,30.02,East,98,5.0,9.0,73,0.00,,,0.00,123.0,meteohub,2013-06-01 22:04:00,
2013-06-01 18:09:00,80.4,70.9,30.02,East,92,3.0,9.0,73,0.00,,,0.00,90.0,meteohub,2013-06-01 22:09:00,
2013-06-01 18:14:00,79.9,71.6,30.02,East,82,5.0,10.0,76,0.00,,,0.00,116.0,meteohub,2013-06-01 22:14:00,
2013-06-01 18:19:00,80.2,71.6,30.02,ESE,109,1.0,10.0,75,0.00,,,0.00,114.0,meteohub,2013-06-01 22:19:00,
2013-06-01 18:24:00,80.4,71.4,30.02,NE,53,1.0,10.0,74,0.00,,,0.00,130.0,meteohub,2013-06-01 22:24:00,
2013-06-01 18:29:00,80.8,72.1,30.02,ESE,117,0.0,10.0,75,0.00,,,0.00,118.0,meteohub,2013-06-01 22:29:00,
2013-06-01 18:34:00,80.8,71.8,30.02,SSE,161,3.0,10.0,74,0.00,,,0.00,70.0,meteohub,2013-06-01 22:34:00,
2013-06-01 18:39:00,80.2,71.6,30.02,NE,34,0.0,7.0,75,0.00,,,0.00,97.0,meteohub,2013-06-01 22:39:00,
2013-06-01 18:44:00,79.9,71.6,30.02,ENE,77,5.0,7.0,76,0.00,,,0.00,77.0,meteohub,2013-06-01 22:44:00,
2013-06-01 18:49:00,79.5,71.6,30.02,NNE,33,4.0,7.0,77,0.00,,,0.00,79.0,meteohub,2013-06-01 22:49:00,
2013-06-01 18:54:00,79.5,71.2,30.02,ESE,108,3.0,9.0,76,0.00,,,0.00,67.0,meteohub,2013-06-01 22:54:00,
2013-06-01 18:59:00,79.5,71.6,30.02,North,355,0.0,11.0,77,0.00,,,0.00,74.0,meteohub,2013-06-01 22:59:00,
2013-06-01 19:04:00,79.5,72.1,30.02,ESE,111,4.0,13.0,78,0.00,,,0.00,86.0,meteohub,2013-06-01 23:04:00,
2013-06-01 19:09:00,79.3,71.4,30.02,NE,50,2.0,13.0,77,0.00,,,0.00,93.0,meteohub,2013-06-01 23:09:00,
2013-06-01 19:14:00,79.0,71.6,30.03,ENE,61,3.0,9.0,78,0.00,,,0.00,51.0,meteohub,2013-06-01 23:14:00,
2013-06-01 19:19:00,78.6,71.6,30.02,ENE,76,0.0,9.0,79,0.00,,,0.00,49.0,meteohub,2013-06-01 23:19:00,
2013-06-01 19:24:00,78.4,71.8,30.02,ESE,123,1.0,8.0,80,0.00,,,0.00,53.0,meteohub,2013-06-01 23:24:00,
2013-06-01 19:29:00,78.3,72.0,30.02,SE,125,5.0,8.0,81,0.00,,,0.00,42.0,meteohub,2013-06-01 23:29:00,
2013-06-01 19:34:00,78.1,71.8,30.02,South,173,1.0,8.0,81,0.00,,,0.00,37.0,meteohub,2013-06-01 23:34:00,
2013-06-01 19:39:00,77.9,71.6,30.02,ENE,68,3.0,10.0,81,0.00,,,0.00,40.0,meteohub,2013-06-01 23:39:00,
2013-06-01 19:44:00,77.9,72.0,30.02,SSE,159,0.0,10.0,82,0.00,,,0.00,98.0,meteohub,2013-06-01 23:44:00,
2013-06-01 19:49:00,78.1,72.1,30.02,SE,134,5.0,10.0,82,0.00,,,0.00,44.0,meteohub,2013-06-01 23:49:00,
2013-06-01 19:54:00,78.1,71.8,30.02,SE,143,5.0,7.0,81,0.00,,,0.00,69.0,meteohub,2013-06-01 23:54:00,
2013-06-01 19:59:00,78.1,72.1,30.02,SE,132,1.0,8.0,82,0.00,,,0.00,40.0,meteohub,2013-06-01 23:59:00,
2013-06-01 20:04:00,77.7,71.8,30.02,SE,140,0.0,9.0,82,0.00,,,0.00,18.0,meteohub,2013-06-02 00:04:00,
2013-06-01 20:09:00,77.5,71.6,30.02,SE,140,0.0,9.0,82,0.00,,,0.00,12.0,meteohub,2013-06-02 00:09:00,
2013-06-01 20:14:00,77.4,71.8,30.02,East,86,2.0,9.0,83,0.00,,,0.00,9.0,meteohub,2013-06-02 00:14:00,
2013-06-01 20:19:00,77.2,72.0,30.02,ENE,72,4.0,9.0,84,0.00,,,0.00,7.0,meteohub,2013-06-02 00:19:00,
2013-06-01 20:24:00,76.8,71.6,30.02,East,86,3.0,6.0,84,0.00,,,0.00,0.0,meteohub,2013-06-02 00:24:00,
2013-06-01 20:29:00,76.6,71.8,30.02,ENE,68,0.0,5.0,85,0.00,,,0.00,0.0,meteohub,2013-06-02 00:29:00,
2013-06-01 20:34:00,76.5,71.6,30.02,ENE,63,0.0,5.0,85,0.00,,,0.00,0.0,meteohub,2013-06-02 00:34:00,
2013-06-01 20:39:00,76.5,72.0,30.02,ESE,117,5.0,5.0,86,0.00,,,0.00,0.0,meteohub,2013-06-02 00:39:00,
2013-06-01 20:44:00,76.5,72.0,30.02,ESE,123,0.0,5.0,86,0.00,,,0.00,0.0,meteohub,2013-06-02 00:44:00,
2013-06-01 20:49:00,76.3,71.8,30.02,SE,132,3.0,6.0,86,0.00,,,0.00,0.0,meteohub,2013-06-02 00:49:00,
2013-06-01 20:54:00,76.3,71.8,30.02,ESE,102,0.0,6.0,86,0.00,,,0.00,0.0,meteohub,2013-06-02 00:54:00,
2013-06-01 20:59:00,76.1,71.6,30.02,East,96,0.0,4.0,86,0.00,,,0.00,0.0,meteohub,2013-06-02 00:59:00,
2013-06-01 21:04:00,76.1,72.0,30.02,ESE,108,0.0,4.0,87,0.00,,,0.00,0.0,meteohub,2013-06-02 01:04:00,
2013-06-01 21:09:00,75.9,71.8,30.02,East,82,0.0,4.0,87,0.00,,,0.00,0.0,meteohub,2013-06-02 01:09:00,
2013-06-01 21:14:00,75.9,71.8,30.02,NE,36,0.0,5.0,87,0.00,,,0.00,0.0,meteohub,2013-06-02 01:14:00,
2013-06-01 21:19:00,75.9,71.8,30.02,ENE,78,3.0,5.0,87,0.00,,,0.00,0.0,meteohub,2013-06-02 01:19:00,
2013-06-01 21:24:00,75.7,71.6,30.02,SE,130,1.0,5.0,87,0.00,,,0.00,0.0,meteohub,2013-06-02 01:24:00,
2013-06-01 21:29:00,75.9,71.8,30.02,East,94,0.0,6.0,87,0.00,,,0.00,0.0,meteohub,2013-06-02 01:29:00,
2013-06-01 21:34:00,75.7,71.6,30.02,ESE,110,0.0,6.0,87,0.00,,,0.00,0.0,meteohub,2013-06-02 01:34:00,
2013-06-01 21:39:00,75.7,71.6,30.02,ESE,108,0.0,6.0,87,0.00,,,0.00,0.0,meteohub,2013-06-02 01:39:00,
2013-06-01 21:44:00,75.7,72.0,30.02,ENE,77,3.0,5.0,88,0.00,,,0.00,0.0,meteohub,2013-06-02 01:44:00,
2013-06-01 21:49:00,75.7,72.0,30.02,East,95,3.0,6.0,88,0.00,,,0.00,0.0,meteohub,2013-06-02 01:49:00,
2013-06-01 21:54:00,75.7,72.0,30.03,NE,40,5.0,6.0,88,0.00,,,0.00,0.0,meteohub,2013-06-02 01:54:00,
2013-06-01 21:59:00,75.7,72.0,30.03,East,101,1.0,5.0,88,0.00,,,0.00,0.0,meteohub,2013-06-02 01:59:00,
2013-06-01 22:04:00,75.7,72.0,30.03,NE,56,0.0,9.0,88,0.00,,,0.00,0.0,meteohub,2013-06-02 02:04:00,
2013-06-01 22:09:00,75.9,71.8,30.03,ESE,111,0.0,9.0,87,0.00,,,0.00,0.0,meteohub,2013-06-02 02:09:00,
2013-06-01 22:14:00,75.9,71.8,30.03,East,94,2.0,7.0,87,0.00,,,0.00,0.0,meteohub,2013-06-02 02:14:00,
2013-06-01 22:19:00,75.9,71.8,30.04,East,96,0.0,7.0,87,0.00,,,0.00,0.0,meteohub,2013-06-02 02:19:00,
2013-06-01 22:24:00,75.7,71.6,30.04,ESE,117,1.0,6.0,87,0.00,,,0.00,0.0,meteohub,2013-06-02 02:24:00,
2013-06-01 22:29:00,75.7,71.6,30.04,ESE,121,0.0,6.0,87,0.00,,,0.00,0.0,meteohub,2013-06-02 02:29:00,
2013-06-01 22:34:00,75.7,72.0,30.04,East,99,3.0,6.0,88,0.00,,,0.00,0.0,meteohub,2013-06-02 02:34:00,
2013-06-01 22:39:00,75.7,72.0,30.05,ESE,117,2.0,6.0,88,0.00,,,0.00,0.0,meteohub,2013-06-02 02:39:00,
2013-06-01 22:44:00,75.9,71.8,30.05,ESE,121,1.0,5.0,87,0.00,,,0.00,0.0,meteohub,2013-06-02 02:44:00,
2013-06-01 22:49:00,75.9,71.8,30.05,SE,140,1.0,6.0,87,0.00,,,0.00,0.0,meteohub,2013-06-02 02:49:00,
2013-06-01 22:54:00,75.9,71.8,30.05,East,87,3.0,8.0,87,0.00,,,0.00,0.0,meteohub,2013-06-02 02:54:00,
2013-06-01 22:59:00,76.1,72.0,30.04,East,96,0.0,8.0,87,0.00,,,0.00,0.0,meteohub,2013-06-02 02:59:00,
2013-06-01 23:04:00,76.3,72.1,30.04,SSE,157,2.0,8.0,87,0.00,,,0.00,0.0,meteohub,2013-06-02 03:04:00,
2013-06-01 23:09:00,76.1,72.0,30.04,East,84,0.0,7.0,87,0.00,,,0.00,0.0,meteohub,2013-06-02 03:09:00,
2013-06-01 23:14:00,76.1,72.0,30.05,SE,124,2.0,7.0,87,0.00,,,0.00,0.0,meteohub,2013-06-02 03:14:00,
2013-06-01 23:19:00,76.1,72.0,30.04,SE,125,3.0,7.0,87,0.00,,,0.00,0.0,meteohub,2013-06-02 03:19:00,
2013-06-01 23:24:00,76.1,72.0,30.04,ESE,121,3.0,7.0,87,0.00,,,0.00,0.0,meteohub,2013-06-02 03:24:00,
2013-06-01 23:29:00,75.9,71.8,30.04,ENE,72,0.0,7.0,87,0.00,,,0.00,0.0,meteohub,2013-06-02 03:29:00,
2013-06-01 23:34:00,75.9,71.8,30.05,SE,126,0.0,5.0,87,0.00,,,0.00,0.0,meteohub,2013-06-02 03:34:00,
2013-06-01 23:39:00,75.7,71.6,30.05,East,94,0.0,6.0,87,0.00,,,0.00,0.0,meteohub,2013-06-02 03:39:00,
2013-06-01 23:44:00,75.7,72.0,30.05,East,94,3.0,6.0,88,0.00,,,0.00,0.0,meteohub,2013-06-02 03:44:00,
2013-06-01 23:49:00,75.7,72.0,30.04,SE,133,3.0,5.0,88,0.00,,,0.00,0.0,meteohub,2013-06-02 03:49:00,
2013-06-01 23:54:00,75.7,72.0,30.04,SE,133,0.0,5.0,88,0.00,,,0.00,0.0,meteohub,2013-06-02 03:54:00,
2013-06-01 23:59:00,75.6,72.1,30.04,SE,133,0.0,6.0,89,0.00,,,0.00,0.0,meteohub,2013-06-02 03:59:00,